N159L KMHR-KAVL

Flight info

Callsign N159L
Flight time 3h 43m
Altitude 35000
Route QUAKK KROST J198 ILC J58 MLF J28 ICT SGF CRELL CEASE SOT
Aircraft CL60/M-SBDE1E2E3FGHIJ1J4J5J7M3RWXYZ/LB1V1D1

Departure

Time 2026-04-26 15:59
Airport Sacramento Mather Airport (KMHR)

Arrival

Time 2026-04-26 19:42
Airport Asheville Regional Airport (KAVL)
Time Latitude Longitude Altitude Speed Heading
2026-04-26 15:48 38.56141 -121.30595 90 ft 0 kts 88°
2026-04-26 15:54 38.56132 -121.30576 90 ft 9 kts 152°
2026-04-26 15:55 38.56040 -121.30540 90 ft 20 kts 167°
2026-04-26 15:55 38.55850 -121.30522 90 ft 31 kts 175°
2026-04-26 15:55 38.55622 -121.30502 87 ft 25 kts 182°
2026-04-26 15:55 38.55436 -121.30735 87 ft 35 kts 232°
2026-04-26 15:56 38.55330 -121.30918 83 ft 41 kts 232°
2026-04-26 15:56 38.55146 -121.31235 82 ft 46 kts 233°
2026-04-26 15:56 38.54954 -121.31574 80 ft 34 kts 239°
2026-04-26 15:56 38.54808 -121.31639 80 ft 28 kts 142°
2026-04-26 15:57 38.54625 -121.31474 79 ft 25 kts 143°
2026-04-26 15:57 38.54556 -121.31400 78 ft 0 kts 130°
2026-04-26 15:58 38.54533 -121.31361 77 ft 14 kts 121°
2026-04-26 15:58 38.54542 -121.31217 77 ft 24 kts 51°
2026-04-26 15:58 38.54807 -121.30766 80 ft 106 kts 55°
2026-04-26 15:58 38.55399 -121.29753 175 ft 167 kts 56°
2026-04-26 15:59 38.56115 -121.28485 792 ft 183 kts 57°
2026-04-26 15:59 38.56884 -121.27193 1518 ft 188 kts 54°
2026-04-26 15:59 38.57692 -121.25892 2414 ft 195 kts 54°
2026-04-26 15:59 38.58615 -121.24402 2850 ft 238 kts 54°
2026-04-26 16:00 38.60046 -121.22073 4144 ft 262 kts 54°
2026-04-26 16:00 38.60785 -121.20856 4919 ft 269 kts 54°
2026-04-26 16:00 38.61880 -121.18921 6129 ft 276 kts 62°
2026-04-26 16:00 38.62458 -121.16623 7307 ft 280 kts 87°
2026-04-26 16:01 38.62191 -121.14204 8460 ft 283 kts 114°
2026-04-26 16:01 38.61168 -121.12053 9537 ft 290 kts 127°
2026-04-26 16:01 38.59998 -121.09960 10549 ft 301 kts 126°
2026-04-26 16:01 38.58757 -121.07724 11319 ft 318 kts 126°
2026-04-26 16:02 38.57022 -121.04594 12528 ft 332 kts 127°
2026-04-26 16:02 38.56123 -121.02972 13151 ft 337 kts 127°
2026-04-26 16:02 38.54771 -121.00534 14037 ft 345 kts 127°
2026-04-26 16:02 38.53842 -120.98859 14641 ft 349 kts 127°
2026-04-26 16:03 38.52000 -120.95457 15833 ft 357 kts 121°
2026-04-26 16:03 38.51084 -120.92505 16672 ft 364 kts 101°
2026-04-26 16:03 38.50902 -120.89286 17437 ft 370 kts 89°
2026-04-26 16:03 38.50914 -120.86016 18194 ft 375 kts 89°
2026-04-26 16:04 38.50919 -120.82688 18952 ft 380 kts 89°
2026-04-26 16:04 38.50921 -120.79294 19736 ft 384 kts 89°
2026-04-26 16:04 38.50923 -120.75881 20493 ft 388 kts 89°
2026-04-26 16:04 38.50923 -120.72443 21195 ft 393 kts 89°
2026-04-26 16:05 38.50923 -120.68958 21880 ft 397 kts 89°
2026-04-26 16:05 38.50921 -120.65416 22547 ft 401 kts 90°
2026-04-26 16:05 38.50918 -120.61850 23190 ft 405 kts 90°
2026-04-26 16:05 38.50911 -120.57076 24067 ft 410 kts 90°
2026-04-26 16:06 38.50908 -120.54668 24443 ft 414 kts 90°
2026-04-26 16:06 38.50901 -120.50966 25088 ft 416 kts 90°
2026-04-26 16:06 38.50895 -120.48299 25518 ft 419 kts 90°
2026-04-26 16:06 38.50889 -120.45473 25955 ft 422 kts 90°
2026-04-26 16:07 38.50879 -120.41702 26530 ft 425 kts 90°
2026-04-26 16:07 38.50868 -120.37923 27048 ft 428 kts 90°
2026-04-26 16:07 38.50855 -120.34166 27522 ft 432 kts 91°
2026-04-26 16:07 38.50837 -120.29049 28187 ft 435 kts 91°
2026-04-26 16:08 38.50826 -120.26467 28490 ft 438 kts 91°
2026-04-26 16:08 38.50809 -120.22556 28912 ft 441 kts 91°
2026-04-26 16:08 38.50791 -120.18634 29325 ft 445 kts 91°
2026-04-26 16:08 38.50772 -120.14723 29727 ft 448 kts 91°
2026-04-26 16:09 38.50751 -120.10725 30139 ft 450 kts 91°
2026-04-26 16:09 38.50729 -120.06760 30594 ft 451 kts 91°
2026-04-26 16:09 38.50705 -120.02747 31055 ft 450 kts 91°
2026-04-26 16:09 38.50680 -119.98803 31513 ft 449 kts 91°
2026-04-26 16:10 38.50645 -119.93549 32106 ft 447 kts 91°
2026-04-26 16:10 38.50626 -119.90919 32374 ft 446 kts 91°
2026-04-26 16:10 38.50597 -119.86941 32764 ft 446 kts 91°
2026-04-26 16:10 38.50567 -119.82993 33122 ft 445 kts 91°
2026-04-26 16:11 38.50536 -119.79106 33458 ft 446 kts 91°
2026-04-26 16:11 38.50503 -119.75140 33756 ft 445 kts 91°
2026-04-26 16:11 38.50469 -119.71193 34031 ft 446 kts 91°
2026-04-26 16:11 38.50434 -119.67284 34304 ft 446 kts 91°
2026-04-26 16:12 38.50397 -119.63341 34549 ft 446 kts 91°
2026-04-26 16:12 38.50359 -119.59401 34762 ft 447 kts 91°
2026-04-26 16:12 38.50277 -119.51347 34844 ft 460 kts 91°
2026-04-26 16:13 38.50187 -119.43092 34832 ft 475 kts 91°
2026-04-26 16:13 38.50088 -119.34582 34800 ft 488 kts 91°
2026-04-26 16:14 38.49981 -119.25907 34799 ft 498 kts 91°
2026-04-26 16:15 38.49804 -119.12551 34809 ft 508 kts 91°
2026-04-26 16:15 38.49675 -119.03452 34789 ft 514 kts 91°
2026-04-26 16:16 38.49468 -118.89799 34783 ft 515 kts 91°
2026-04-26 16:16 38.49319 -118.80590 34809 ft 514 kts 91°
2026-04-26 16:17 38.49164 -118.71438 34823 ft 514 kts 91°
2026-04-26 16:17 38.48975 -118.60824 34812 ft 514 kts 91°
2026-04-26 16:18 38.48746 -118.48592 34821 ft 513 kts 91°
2026-04-26 16:19 38.48474 -118.34920 34801 ft 513 kts 92°
2026-04-26 16:20 38.48186 -118.21230 34798 ft 512 kts 92°
2026-04-26 16:20 38.47882 -118.07514 34776 ft 512 kts 92°
2026-04-26 16:21 38.47671 -117.98416 34775 ft 512 kts 92°
2026-04-26 16:21 38.47455 -117.89381 34763 ft 512 kts 92°
2026-04-26 16:22 38.47229 -117.80258 34760 ft 511 kts 92°
2026-04-26 16:22 38.46999 -117.71226 34752 ft 511 kts 92°
2026-04-26 16:23 38.46761 -117.62154 34778 ft 511 kts 92°
2026-04-26 16:23 38.46514 -117.53049 34771 ft 512 kts 92°
2026-04-26 16:24 38.46261 -117.43951 34778 ft 510 kts 92°
2026-04-26 16:24 38.46003 -117.34906 34774 ft 510 kts 92°
2026-04-26 16:25 38.45736 -117.25841 34758 ft 511 kts 92°
2026-04-26 16:25 38.45464 -117.16797 34760 ft 509 kts 92°
2026-04-26 16:26 38.45183 -117.07728 34732 ft 510 kts 92°
2026-04-26 16:26 38.44899 -116.98767 34745 ft 509 kts 92°
2026-04-26 16:27 38.44606 -116.89730 34743 ft 509 kts 92°
2026-04-26 16:27 38.44305 -116.80674 34709 ft 508 kts 92°
2026-04-26 16:28 38.43999 -116.71679 34746 ft 508 kts 92°
2026-04-26 16:28 38.43687 -116.62716 34752 ft 508 kts 92°
2026-04-26 16:29 38.43365 -116.53666 34729 ft 508 kts 92°
2026-04-26 16:29 38.43039 -116.44699 34741 ft 508 kts 92°
2026-04-26 16:30 38.42705 -116.35698 34724 ft 510 kts 92°
2026-04-26 16:30 38.42363 -116.26663 34773 ft 507 kts 93°
2026-04-26 16:31 38.41937 -116.17602 34778 ft 508 kts 96°
2026-04-26 16:31 38.41013 -116.07117 34755 ft 509 kts 97°
2026-04-26 16:32 38.40344 -115.99595 34765 ft 508 kts 97°
2026-04-26 16:32 38.39542 -115.90642 34775 ft 507 kts 97°
2026-04-26 16:33 38.38737 -115.81724 34758 ft 509 kts 97°
2026-04-26 16:33 38.37923 -115.72756 34793 ft 510 kts 97°
2026-04-26 16:34 38.37097 -115.63727 34759 ft 510 kts 97°
2026-04-26 16:34 38.36275 -115.54822 34733 ft 509 kts 97°
2026-04-26 16:35 38.35440 -115.45837 34725 ft 509 kts 97°
2026-04-26 16:35 38.34466 -115.35455 34732 ft 510 kts 97°
2026-04-26 16:36 38.33757 -115.27960 34765 ft 509 kts 98°
2026-04-26 16:36 38.32904 -115.19009 34740 ft 510 kts 98°
2026-04-26 16:37 38.32040 -115.10007 34745 ft 511 kts 98°
2026-04-26 16:37 38.31169 -115.01015 34757 ft 511 kts 98°
2026-04-26 16:38 38.30286 -114.91971 34734 ft 511 kts 98°
2026-04-26 16:38 38.29403 -114.82995 34732 ft 511 kts 98°
2026-04-26 16:39 38.28513 -114.74017 34730 ft 511 kts 98°
2026-04-26 16:39 38.27462 -114.63512 34728 ft 512 kts 98°
2026-04-26 16:40 38.26709 -114.56035 34754 ft 511 kts 98°
2026-04-26 16:40 38.25791 -114.46994 34718 ft 512 kts 98°
2026-04-26 16:41 38.25235 -114.37999 34728 ft 513 kts 89°
2026-04-26 16:41 38.25907 -114.28961 34720 ft 514 kts 85°
2026-04-26 16:42 38.26678 -114.19845 34733 ft 514 kts 85°
2026-04-26 16:42 38.27438 -114.10772 34724 ft 514 kts 85°
2026-04-26 16:43 38.28189 -114.01706 34699 ft 515 kts 85°
2026-04-26 16:43 38.28934 -113.92632 34739 ft 515 kts 85°
2026-04-26 16:44 38.29669 -113.83600 34717 ft 515 kts 85°
2026-04-26 16:44 38.30400 -113.74519 34733 ft 515 kts 85°
2026-04-26 16:45 38.31124 -113.65425 34753 ft 515 kts 85°
2026-04-26 16:45 38.31839 -113.56370 34742 ft 515 kts 85°
2026-04-26 16:46 38.32550 -113.47273 34738 ft 514 kts 85°
2026-04-26 16:46 38.33257 -113.38129 34741 ft 515 kts 85°
2026-04-26 16:47 38.33952 -113.29050 34741 ft 515 kts 86°
2026-04-26 16:47 38.34640 -113.19974 34762 ft 516 kts 86°
2026-04-26 16:48 38.35322 -113.10879 34759 ft 516 kts 86°
2026-04-26 16:48 38.35992 -113.01791 34752 ft 516 kts 87°
2026-04-26 16:49 38.36343 -112.92690 34775 ft 515 kts 89°
2026-04-26 16:49 38.36640 -112.83536 34765 ft 514 kts 89°
2026-04-26 16:50 38.36932 -112.74379 34742 ft 516 kts 89°
2026-04-26 16:50 38.37219 -112.65189 34758 ft 516 kts 89°
2026-04-26 16:51 38.37496 -112.56113 34742 ft 516 kts 89°
2026-04-26 16:51 38.37769 -112.46952 34747 ft 517 kts 90°
2026-04-26 16:52 38.37993 -112.39284 34751 ft 516 kts 90°
2026-04-26 16:52 38.38296 -112.28599 34759 ft 516 kts 90°
2026-04-26 16:53 38.38547 -112.19485 34763 ft 517 kts 90°
2026-04-26 16:53 38.38792 -112.10342 34760 ft 517 kts 90°
2026-04-26 16:54 38.39032 -112.01161 34772 ft 516 kts 90°
2026-04-26 16:54 38.39264 -111.91959 34778 ft 518 kts 91°
2026-04-26 16:55 38.39490 -111.82755 34744 ft 519 kts 91°
2026-04-26 16:55 38.39708 -111.73541 34739 ft 518 kts 91°
2026-04-26 16:56 38.40022 -111.59801 34771 ft 517 kts 91°
2026-04-26 16:57 38.40222 -111.50601 34759 ft 518 kts 91°
2026-04-26 16:57 38.40510 -111.36766 34760 ft 519 kts 91°
2026-04-26 16:58 38.40664 -111.29047 34774 ft 518 kts 92°
2026-04-26 16:59 38.40954 -111.13751 34779 ft 518 kts 92°
2026-04-26 17:00 38.41275 -110.95403 34796 ft 518 kts 92°
2026-04-26 17:00 38.41498 -110.81606 34807 ft 518 kts 92°
2026-04-26 17:01 38.41637 -110.72407 34801 ft 519 kts 92°
2026-04-26 17:01 38.41834 -110.63205 34789 ft 520 kts 91°
2026-04-26 17:02 38.42059 -110.53996 34797 ft 521 kts 91°
2026-04-26 17:02 38.42278 -110.44731 34799 ft 522 kts 91°
2026-04-26 17:03 38.42488 -110.35500 34800 ft 522 kts 91°
2026-04-26 17:03 38.42692 -110.26229 34779 ft 522 kts 92°
2026-04-26 17:04 38.42888 -110.16976 34797 ft 523 kts 92°
2026-04-26 17:04 38.43077 -110.07690 34810 ft 524 kts 92°
2026-04-26 17:05 38.43259 -109.98376 34806 ft 525 kts 92°
2026-04-26 17:05 38.43462 -109.87485 34810 ft 525 kts 92°
2026-04-26 17:06 38.43602 -109.79697 34812 ft 526 kts 92°
2026-04-26 17:06 38.43762 -109.70401 34806 ft 526 kts 92°
2026-04-26 17:07 38.43916 -109.61000 34811 ft 526 kts 92°
2026-04-26 17:07 38.44061 -109.51678 34803 ft 527 kts 92°
2026-04-26 17:08 38.44199 -109.42345 34793 ft 527 kts 92°
2026-04-26 17:08 38.44331 -109.32949 34829 ft 528 kts 93°
2026-04-26 17:09 38.44434 -109.25186 34830 ft 528 kts 93°
2026-04-26 17:09 38.44570 -109.14226 34835 ft 528 kts 93°
2026-04-26 17:10 38.44679 -109.04836 34818 ft 529 kts 94°
2026-04-26 17:10 38.44780 -108.95509 34846 ft 530 kts 93°
2026-04-26 17:11 38.44874 -108.86095 34832 ft 531 kts 93°
2026-04-26 17:11 38.44961 -108.76637 34851 ft 531 kts 94°
2026-04-26 17:12 38.45078 -108.62427 34857 ft 532 kts 94°
2026-04-26 17:13 38.45177 -108.48265 34878 ft 533 kts 93°
2026-04-26 17:14 38.45260 -108.34059 34898 ft 535 kts 94°
2026-04-26 17:14 38.45325 -108.19765 34901 ft 535 kts 95°
2026-04-26 17:15 38.45374 -108.05508 34891 ft 536 kts 95°
2026-04-26 17:16 38.45397 -107.95960 34846 ft 537 kts 94°
2026-04-26 17:16 38.45413 -107.86438 34830 ft 536 kts 95°
2026-04-26 17:17 38.45421 -107.76895 34893 ft 535 kts 95°
2026-04-26 17:17 38.45421 -107.67384 34953 ft 537 kts 95°
2026-04-26 17:18 38.45412 -107.57870 34953 ft 539 kts 94°
2026-04-26 17:18 38.45396 -107.48189 34906 ft 539 kts 94°
2026-04-26 17:19 38.45359 -107.33887 34836 ft 540 kts 95°
2026-04-26 17:19 38.45324 -107.24300 34929 ft 540 kts 95°
2026-04-26 17:20 38.45289 -107.16350 34996 ft 540 kts 95°
2026-04-26 17:20 38.45227 -107.05102 34986 ft 542 kts 95°
2026-04-26 17:21 38.44828 -106.95563 34963 ft 540 kts 98°
2026-04-26 17:21 38.44340 -106.85950 34969 ft 539 kts 98°
2026-04-26 17:22 38.43848 -106.76382 34991 ft 540 kts 98°
2026-04-26 17:22 38.43348 -106.66791 34991 ft 542 kts 98°
2026-04-26 17:23 38.42842 -106.57233 34976 ft 542 kts 98°
2026-04-26 17:23 38.42329 -106.47671 34969 ft 542 kts 98°
2026-04-26 17:24 38.41804 -106.38023 34924 ft 542 kts 98°
2026-04-26 17:24 38.41273 -106.28421 34925 ft 541 kts 99°
2026-04-26 17:25 38.40739 -106.18882 34915 ft 542 kts 99°
2026-04-26 17:25 38.40192 -106.09274 34921 ft 542 kts 98°
2026-04-26 17:26 38.39641 -105.99712 34938 ft 542 kts 98°
2026-04-26 17:26 38.39078 -105.90131 34939 ft 544 kts 98°
2026-04-26 17:27 38.38502 -105.80486 34917 ft 545 kts 98°
2026-04-26 17:27 38.37918 -105.70819 34897 ft 545 kts 98°
2026-04-26 17:28 38.37330 -105.61228 34929 ft 544 kts 98°
2026-04-26 17:28 38.36734 -105.51640 34945 ft 544 kts 98°
2026-04-26 17:29 38.36226 -105.43560 34950 ft 545 kts 98°
2026-04-26 17:29 38.35513 -105.32344 34952 ft 545 kts 99°
2026-04-26 17:30 38.34893 -105.22708 34947 ft 544 kts 99°
2026-04-26 17:30 38.34266 -105.13095 34951 ft 544 kts 99°
2026-04-26 17:31 38.33629 -105.03448 34940 ft 545 kts 99°
2026-04-26 17:31 38.32875 -104.92191 34943 ft 546 kts 99°
2026-04-26 17:32 38.32325 -104.84090 34924 ft 546 kts 99°
2026-04-26 17:32 38.31665 -104.74461 34869 ft 547 kts 99°
2026-04-26 17:33 38.30993 -104.64791 34845 ft 548 kts 99°
2026-04-26 17:34 38.29971 -104.50281 34805 ft 547 kts 99°
2026-04-26 17:34 38.29264 -104.40658 34828 ft 547 kts 101°
2026-04-26 17:35 38.28438 -104.31051 34846 ft 548 kts 101°
2026-04-26 17:35 38.27597 -104.21373 34874 ft 548 kts 101°
2026-04-26 17:36 38.26751 -104.11719 34878 ft 548 kts 101°
2026-04-26 17:36 38.25898 -104.02084 34864 ft 549 kts 101°
2026-04-26 17:37 38.25035 -103.92416 34852 ft 550 kts 102°
2026-04-26 17:37 38.24162 -103.82715 34864 ft 550 kts 102°
2026-04-26 17:38 38.22839 -103.68199 34874 ft 550 kts 102°
2026-04-26 17:38 38.21945 -103.58493 34868 ft 550 kts 102°
2026-04-26 17:39 38.21053 -103.48895 34871 ft 551 kts 101°
2026-04-26 17:39 38.20145 -103.39222 34872 ft 551 kts 102°
2026-04-26 17:40 38.19381 -103.31142 34874 ft 552 kts 102°
2026-04-26 17:40 38.18303 -103.19848 34868 ft 552 kts 102°
2026-04-26 17:41 38.17371 -103.10169 34866 ft 552 kts 102°
2026-04-26 17:41 38.16431 -103.00503 34865 ft 552 kts 102°
2026-04-26 17:42 38.15481 -102.90813 34869 ft 553 kts 102°
2026-04-26 17:42 38.14527 -102.81158 34887 ft 553 kts 102°
2026-04-26 17:43 38.13557 -102.71433 34862 ft 553 kts 102°
2026-04-26 17:43 38.12583 -102.61747 34861 ft 552 kts 102°
2026-04-26 17:44 38.11606 -102.52110 34879 ft 552 kts 102°
2026-04-26 17:44 38.10620 -102.42476 34886 ft 553 kts 102°
2026-04-26 17:45 38.09623 -102.32806 34872 ft 552 kts 103°
2026-04-26 17:45 38.08617 -102.23126 34863 ft 552 kts 103°
2026-04-26 17:46 38.07602 -102.13447 34870 ft 552 kts 103°
2026-04-26 17:46 38.06585 -102.03820 34869 ft 551 kts 103°
2026-04-26 17:47 38.05730 -101.95792 34880 ft 551 kts 102°
2026-04-26 17:47 38.04527 -101.84579 34876 ft 551 kts 103°
2026-04-26 17:48 38.03490 -101.74992 34879 ft 550 kts 102°
2026-04-26 17:48 38.02444 -101.65405 34885 ft 551 kts 102°
2026-04-26 17:49 38.01381 -101.55733 34877 ft 551 kts 102°
2026-04-26 17:49 38.00313 -101.46088 34879 ft 550 kts 102°
2026-04-26 17:50 37.99243 -101.36500 34878 ft 551 kts 102°
2026-04-26 17:50 37.98159 -101.26863 34879 ft 550 kts 103°
2026-04-26 17:51 37.97082 -101.17351 34881 ft 550 kts 102°
2026-04-26 17:51 37.95986 -101.07750 34899 ft 550 kts 103°
2026-04-26 17:52 37.94883 -100.98160 34892 ft 549 kts 102°
2026-04-26 17:52 37.93775 -100.88590 34895 ft 550 kts 103°
2026-04-26 17:53 37.92657 -100.79015 34891 ft 550 kts 102°
2026-04-26 17:54 37.91528 -100.64564 34885 ft 554 kts 96°
2026-04-26 17:54 37.91116 -100.54791 34886 ft 555 kts 96°
2026-04-26 17:55 37.90693 -100.45042 34889 ft 555 kts 96°
2026-04-26 17:55 37.90260 -100.35261 34887 ft 554 kts 96°
2026-04-26 17:56 37.89818 -100.25489 34889 ft 554 kts 96°
2026-04-26 17:57 37.88912 -100.06044 34886 ft 554 kts 96°
2026-04-26 17:57 37.88444 -99.96296 34887 ft 555 kts 96°
2026-04-26 17:58 37.87481 -99.76728 34885 ft 555 kts 96°
2026-04-26 17:59 37.86739 -99.62089 34875 ft 554 kts 96°
2026-04-26 17:59 37.86235 -99.52350 34877 ft 553 kts 96°
2026-04-26 18:00 37.85724 -99.42642 34871 ft 552 kts 96°
2026-04-26 18:00 37.85209 -99.32986 34872 ft 552 kts 97°
2026-04-26 18:01 37.84683 -99.23298 34865 ft 551 kts 96°
2026-04-26 18:01 37.84146 -99.13567 34867 ft 551 kts 96°
2026-04-26 18:02 37.83696 -99.05496 34874 ft 551 kts 96°
2026-04-26 18:02 37.83060 -98.94273 34869 ft 549 kts 96°
2026-04-26 18:03 37.82505 -98.84639 34871 ft 550 kts 96°
2026-04-26 18:03 37.81939 -98.74953 34864 ft 550 kts 96°
2026-04-26 18:04 37.81367 -98.65300 34866 ft 550 kts 96°
2026-04-26 18:05 37.80493 -98.50796 34859 ft 550 kts 96°
2026-04-26 18:05 37.79903 -98.41180 34850 ft 549 kts 95°
2026-04-26 18:06 37.79302 -98.31508 34858 ft 549 kts 96°
2026-04-26 18:06 37.78698 -98.21918 34989 ft 550 kts 96°
2026-04-26 18:06 37.78392 -98.17114 34849 ft 551 kts 96°
2026-04-26 18:07 37.78082 -98.12270 34863 ft 549 kts 96°
2026-04-26 18:07 37.77454 -98.02560 34847 ft 549 kts 96°
2026-04-26 18:08 37.76828 -97.92995 34845 ft 549 kts 96°
2026-04-26 18:08 37.76191 -97.83389 34843 ft 549 kts 96°
2026-04-26 18:09 37.75547 -97.73779 34847 ft 548 kts 96°
2026-04-26 18:09 37.74901 -97.64270 34846 ft 548 kts 96°
2026-04-26 18:10 37.74227 -97.54654 34843 ft 547 kts 96°
2026-04-26 18:10 37.73518 -97.45092 34851 ft 547 kts 96°
2026-04-26 18:11 37.72803 -97.35548 34842 ft 546 kts 96°
2026-04-26 18:11 37.72078 -97.25949 34847 ft 546 kts 97°
2026-04-26 18:12 37.71347 -97.16409 34858 ft 546 kts 97°
2026-04-26 18:12 37.70606 -97.06816 34863 ft 545 kts 96°
2026-04-26 18:13 37.69858 -96.97239 34864 ft 545 kts 97°
2026-04-26 18:13 37.69108 -96.87741 34863 ft 544 kts 96°
2026-04-26 18:14 37.68341 -96.78128 34882 ft 543 kts 97°
2026-04-26 18:14 37.67573 -96.68591 34857 ft 544 kts 96°
2026-04-26 18:15 37.66801 -96.59107 34848 ft 544 kts 97°
2026-04-26 18:15 37.66014 -96.49535 34859 ft 544 kts 97°
2026-04-26 18:16 37.65223 -96.40011 34871 ft 544 kts 97°
2026-04-26 18:16 37.64025 -96.25756 34858 ft 543 kts 97°
2026-04-26 18:17 37.63215 -96.16241 34874 ft 543 kts 97°
2026-04-26 18:17 37.62401 -96.06757 34876 ft 543 kts 97°
2026-04-26 18:18 37.61577 -95.97251 34872 ft 542 kts 97°
2026-04-26 18:18 37.60743 -95.87718 34873 ft 542 kts 97°
2026-04-26 18:19 37.59909 -95.78287 34873 ft 542 kts 97°
2026-04-26 18:19 37.59064 -95.68804 34884 ft 541 kts 97°
2026-04-26 18:20 37.58212 -95.59341 34894 ft 541 kts 97°
2026-04-26 18:20 37.57503 -95.51524 34885 ft 540 kts 97°
2026-04-26 18:21 37.56496 -95.40520 34885 ft 540 kts 97°
2026-04-26 18:21 37.55627 -95.31117 34890 ft 538 kts 98°
2026-04-26 18:22 37.54756 -95.21770 34889 ft 538 kts 98°
2026-04-26 18:22 37.53875 -95.12405 34883 ft 538 kts 98°
2026-04-26 18:23 37.52990 -95.03063 34880 ft 537 kts 98°
2026-04-26 18:23 37.52091 -94.93664 34890 ft 537 kts 98°
2026-04-26 18:24 37.51192 -94.84352 34899 ft 537 kts 98°
2026-04-26 18:24 37.50282 -94.74994 34911 ft 537 kts 98°
2026-04-26 18:25 37.49366 -94.65654 34908 ft 537 kts 98°
2026-04-26 18:25 37.48444 -94.56330 34907 ft 538 kts 98°
2026-04-26 18:26 37.47516 -94.47012 34906 ft 537 kts 98°
2026-04-26 18:26 37.46579 -94.37691 34907 ft 537 kts 97°
2026-04-26 18:27 37.45631 -94.28339 34903 ft 537 kts 98°
2026-04-26 18:27 37.44683 -94.19051 34905 ft 538 kts 98°
2026-04-26 18:28 37.43725 -94.09746 34912 ft 538 kts 98°
2026-04-26 18:28 37.42759 -94.00429 34920 ft 538 kts 98°
2026-04-26 18:29 37.41785 -93.91122 34918 ft 539 kts 98°
2026-04-26 18:29 37.40803 -93.81799 34927 ft 539 kts 98°
2026-04-26 18:30 37.39801 -93.72366 34934 ft 539 kts 98°
2026-04-26 18:30 37.38804 -93.63045 34938 ft 540 kts 98°
2026-04-26 18:31 37.37788 -93.53620 34943 ft 540 kts 98°
2026-04-26 18:31 37.36771 -93.44260 34943 ft 541 kts 98°
2026-04-26 18:32 37.35748 -93.34905 34942 ft 541 kts 99°
2026-04-26 18:32 37.34723 -93.25508 34951 ft 541 kts 98°
2026-04-26 18:33 37.33688 -93.16049 34948 ft 542 kts 98°
2026-04-26 18:33 37.32650 -93.06635 34957 ft 542 kts 98°
2026-04-26 18:34 37.31608 -92.97259 34959 ft 542 kts 98°
2026-04-26 18:34 37.30558 -92.87881 34963 ft 542 kts 98°
2026-04-26 18:35 37.29502 -92.78514 34966 ft 542 kts 98°
2026-04-26 18:35 37.28429 -92.69070 34970 ft 543 kts 98°
2026-04-26 18:36 37.27360 -92.59730 34970 ft 542 kts 98°
2026-04-26 18:36 37.26276 -92.50322 34966 ft 542 kts 98°
2026-04-26 18:37 37.25191 -92.40972 34969 ft 542 kts 98°
2026-04-26 18:37 37.24095 -92.31605 34972 ft 542 kts 98°
2026-04-26 18:38 37.22993 -92.22240 34971 ft 542 kts 99°
2026-04-26 18:38 37.21883 -92.12873 34978 ft 542 kts 98°
2026-04-26 18:39 37.20775 -92.03591 34975 ft 542 kts 98°
2026-04-26 18:39 37.19649 -91.94223 34977 ft 543 kts 98°
2026-04-26 18:40 37.18513 -91.84833 34985 ft 542 kts 98°
2026-04-26 18:40 37.17378 -91.75516 34975 ft 542 kts 98°
2026-04-26 18:41 37.16238 -91.66219 34980 ft 542 kts 98°
2026-04-26 18:41 37.15080 -91.56843 34979 ft 541 kts 98°
2026-04-26 18:42 37.13926 -91.47567 34993 ft 541 kts 98°
2026-04-26 18:42 37.12751 -91.38171 34983 ft 541 kts 98°
2026-04-26 18:43 37.11580 -91.28874 34987 ft 540 kts 98°
2026-04-26 18:43 37.10400 -91.19568 34990 ft 540 kts 98°
2026-04-26 18:44 37.09220 -91.10322 34984 ft 540 kts 98°
2026-04-26 18:44 37.08031 -91.01060 34983 ft 539 kts 98°
2026-04-26 18:45 37.06827 -90.91747 34986 ft 539 kts 98°
2026-04-26 18:45 37.05620 -90.82461 34982 ft 539 kts 98°
2026-04-26 18:46 37.04413 -90.73238 34983 ft 539 kts 98°
2026-04-26 18:46 37.03190 -90.63957 34987 ft 539 kts 98°
2026-04-26 18:47 37.01961 -90.54682 34974 ft 538 kts 98°
2026-04-26 18:47 37.00733 -90.45476 34978 ft 538 kts 98°
2026-04-26 18:48 36.99488 -90.36198 34962 ft 539 kts 98°
2026-04-26 18:48 36.98249 -90.27019 34972 ft 538 kts 98°
2026-04-26 18:49 36.96991 -90.17762 34979 ft 538 kts 98°
2026-04-26 18:49 36.95734 -90.08562 34983 ft 538 kts 98°
2026-04-26 18:50 36.94468 -89.99353 34989 ft 538 kts 98°
2026-04-26 18:50 36.93192 -89.90128 34976 ft 538 kts 98°
2026-04-26 18:51 36.91907 -89.80897 34982 ft 538 kts 98°
2026-04-26 18:51 36.90623 -89.71719 34989 ft 538 kts 98°
2026-04-26 18:52 36.89325 -89.62492 34992 ft 539 kts 98°
2026-04-26 18:52 36.87975 -89.53260 34985 ft 539 kts 101°
2026-04-26 18:53 36.86137 -89.44186 34982 ft 540 kts 103°
2026-04-26 18:53 36.84259 -89.35072 34987 ft 539 kts 103°
2026-04-26 18:54 36.82390 -89.26035 34985 ft 539 kts 103°
2026-04-26 18:54 36.80515 -89.17002 34994 ft 539 kts 103°
2026-04-26 18:55 36.78630 -89.07948 34991 ft 540 kts 103°
2026-04-26 18:55 36.76731 -88.98863 34996 ft 540 kts 103°
2026-04-26 18:56 36.74844 -88.89875 35000 ft 540 kts 103°
2026-04-26 18:56 36.72929 -88.80785 35008 ft 539 kts 103°
2026-04-26 18:57 36.71353 -88.73327 34998 ft 539 kts 103°
2026-04-26 18:57 36.69117 -88.62794 35009 ft 538 kts 103°
2026-04-26 18:58 36.67198 -88.53794 35014 ft 538 kts 103°
2026-04-26 18:58 36.65299 -88.44916 35016 ft 538 kts 103°
2026-04-26 18:59 36.63370 -88.35941 35008 ft 536 kts 103°
2026-04-26 18:59 36.61439 -88.26989 35006 ft 536 kts 104°
2026-04-26 19:00 36.59494 -88.18009 35008 ft 536 kts 104°
2026-04-26 19:00 36.57540 -88.09023 34995 ft 536 kts 104°
2026-04-26 19:01 36.55589 -88.00085 35005 ft 536 kts 104°
2026-04-26 19:01 36.53622 -87.91109 35001 ft 536 kts 104°
2026-04-26 19:02 36.51660 -87.82193 34997 ft 536 kts 103°
2026-04-26 19:02 36.50014 -87.74736 35002 ft 537 kts 104°
2026-04-26 19:03 36.47689 -87.64243 35009 ft 537 kts 103°
2026-04-26 19:03 36.45694 -87.55281 35011 ft 537 kts 103°
2026-04-26 19:04 36.43693 -87.46329 35009 ft 538 kts 103°
2026-04-26 19:04 36.41669 -87.37303 35015 ft 540 kts 104°
2026-04-26 19:05 36.38612 -87.23738 35009 ft 541 kts 104°
2026-04-26 19:06 36.36573 -87.14736 35016 ft 541 kts 104°
2026-04-26 19:06 36.34546 -87.05820 35013 ft 541 kts 104°
2026-04-26 19:07 36.32496 -86.96837 35020 ft 541 kts 104°
2026-04-26 19:07 36.30437 -86.87846 35016 ft 542 kts 104°
2026-04-26 19:08 36.28373 -86.78869 35021 ft 542 kts 104°
2026-04-26 19:08 36.26297 -86.69875 35027 ft 542 kts 104°
2026-04-26 19:09 36.24216 -86.60893 35025 ft 543 kts 104°
2026-04-26 19:09 36.22123 -86.51891 35033 ft 544 kts 104°
2026-04-26 19:10 36.20008 -86.42828 35036 ft 544 kts 104°
2026-04-26 19:10 36.18948 -86.38296 35140 ft 545 kts 104°
2026-04-26 19:10 36.17905 -86.33849 35027 ft 545 kts 104°
2026-04-26 19:11 36.15783 -86.24826 35022 ft 542 kts 105°
2026-04-26 19:11 36.13669 -86.15870 35036 ft 543 kts 104°
2026-04-26 19:12 36.11561 -86.06973 35031 ft 543 kts 104°
2026-04-26 19:12 36.09407 -85.97912 35028 ft 544 kts 104°
2026-04-26 19:13 36.07282 -85.88995 35034 ft 544 kts 103°
2026-04-26 19:13 36.06004 -85.79885 35030 ft 539 kts 92°
2026-04-26 19:14 36.05201 -85.70624 35041 ft 540 kts 92°
2026-04-26 19:14 36.04391 -85.61404 35030 ft 540 kts 92°
2026-04-26 19:15 36.03572 -85.52180 35039 ft 539 kts 92°
2026-04-26 19:15 36.02749 -85.42978 35037 ft 539 kts 92°
2026-04-26 19:16 36.01923 -85.33830 35049 ft 538 kts 93°
2026-04-26 19:16 36.01085 -85.24615 35063 ft 538 kts 93°
2026-04-26 19:17 36.00245 -85.15470 35061 ft 538 kts 92°
2026-04-26 19:17 35.99389 -85.06220 35062 ft 538 kts 93°
2026-04-26 19:18 35.98535 -84.97073 35054 ft 537 kts 93°
2026-04-26 19:18 35.97674 -84.87923 35056 ft 537 kts 93°
2026-04-26 19:19 35.96809 -84.78805 35046 ft 537 kts 93°
2026-04-26 19:19 35.95940 -84.69718 35045 ft 536 kts 93°
2026-04-26 19:20 35.95061 -84.60609 35041 ft 536 kts 92°
2026-04-26 19:20 35.94172 -84.51467 35039 ft 535 kts 93°
2026-04-26 19:21 35.93279 -84.42344 35036 ft 536 kts 93°
2026-04-26 19:21 35.92382 -84.33266 35033 ft 535 kts 94°
2026-04-26 19:22 35.91482 -84.24225 35031 ft 535 kts 93°
2026-04-26 19:22 35.90567 -84.15105 35029 ft 535 kts 94°
2026-04-26 19:23 35.89650 -84.06032 35031 ft 535 kts 93°
2026-04-26 19:23 35.88726 -83.96966 35026 ft 535 kts 94°
2026-04-26 19:24 35.87795 -83.87892 34954 ft 532 kts 93°
2026-04-26 19:24 35.87333 -83.83432 34424 ft 521 kts 93°
2026-04-26 19:24 35.86429 -83.74745 33202 ft 508 kts 94°
2026-04-26 19:25 35.85985 -83.70491 32540 ft 502 kts 94°
2026-04-26 19:25 35.85686 -83.67640 32106 ft 499 kts 94°
2026-04-26 19:25 35.85100 -83.62055 31238 ft 492 kts 94°
2026-04-26 19:25 35.84661 -83.57888 30583 ft 487 kts 94°
2026-04-26 19:26 35.84232 -83.53826 29945 ft 481 kts 94°
2026-04-26 19:26 35.83803 -83.49787 29332 ft 474 kts 94°
2026-04-26 19:26 35.83378 -83.45790 28689 ft 469 kts 94°
2026-04-26 19:26 35.82954 -83.41827 28084 ft 462 kts 95°
2026-04-26 19:27 35.82539 -83.37949 27485 ft 457 kts 95°
2026-04-26 19:27 35.82129 -83.34130 26882 ft 451 kts 95°
2026-04-26 19:27 35.81721 -83.30353 26297 ft 445 kts 95°
2026-04-26 19:27 35.81315 -83.26592 25707 ft 439 kts 95°
2026-04-26 19:28 35.80913 -83.22885 25129 ft 434 kts 95°
2026-04-26 19:28 35.80516 -83.19228 24562 ft 432 kts 96°
2026-04-26 19:28 35.80120 -83.15587 23992 ft 430 kts 96°
2026-04-26 19:28 35.79722 -83.11993 23431 ft 427 kts 97°
2026-04-26 19:29 35.78947 -83.08465 22852 ft 425 kts 111°
2026-04-26 19:29 35.77516 -83.05334 22248 ft 420 kts 127°
2026-04-26 19:29 35.75523 -83.02761 21646 ft 414 kts 141°
2026-04-26 19:29 35.73161 -83.00789 21049 ft 408 kts 149°
2026-04-26 19:30 35.70797 -82.99013 20547 ft 403 kts 149°
2026-04-26 19:30 35.68387 -82.97191 19997 ft 401 kts 148°
2026-04-26 19:30 35.66037 -82.95416 19482 ft 398 kts 148°
2026-04-26 19:30 35.64490 -82.94247 19127 ft 396 kts 148°
2026-04-26 19:31 35.61377 -82.91898 18437 ft 390 kts 148°
2026-04-26 19:31 35.59076 -82.90162 17925 ft 387 kts 147°
2026-04-26 19:31 35.56781 -82.88432 17410 ft 384 kts 147°
2026-04-26 19:31 35.54536 -82.86740 16911 ft 380 kts 147°
2026-04-26 19:32 35.52294 -82.85053 16405 ft 376 kts 146°
2026-04-26 19:32 35.50085 -82.83390 15917 ft 372 kts 146°
2026-04-26 19:32 35.47913 -82.81757 15423 ft 367 kts 146°
2026-04-26 19:32 35.45737 -82.80121 14944 ft 364 kts 146°
2026-04-26 19:33 35.43583 -82.78503 14578 ft 360 kts 146°
2026-04-26 19:33 35.41444 -82.76895 14047 ft 361 kts 146°
2026-04-26 19:33 35.39317 -82.75298 13406 ft 358 kts 145°
2026-04-26 19:33 35.37226 -82.73732 13010 ft 348 kts 146°
2026-04-26 19:34 35.35181 -82.72199 12531 ft 346 kts 146°
2026-04-26 19:34 35.33154 -82.70680 12084 ft 340 kts 146°
2026-04-26 19:34 35.31144 -82.69175 11635 ft 333 kts 146°
2026-04-26 19:34 35.29199 -82.67719 11197 ft 327 kts 146°
2026-04-26 19:35 35.27285 -82.66287 10766 ft 322 kts 146°
2026-04-26 19:35 35.25389 -82.64870 10341 ft 317 kts 146°
2026-04-26 19:35 35.23518 -82.63470 9923 ft 312 kts 146°
2026-04-26 19:35 35.21692 -82.62101 9509 ft 307 kts 144°
2026-04-26 19:36 35.20124 -82.60420 9058 ft 300 kts 125°
2026-04-26 19:36 35.19395 -82.58974 8732 ft 295 kts 111°
2026-04-26 19:36 35.18883 -82.55799 8113 ft 286 kts 85°
2026-04-26 19:36 35.19271 -82.53464 7609 ft 282 kts 69°
2026-04-26 19:37 35.19940 -82.51258 7295 ft 274 kts 68°
2026-04-26 19:37 35.20648 -82.49139 6915 ft 268 kts 59°
2026-04-26 19:37 35.21845 -82.47385 6463 ft 266 kts 38°
2026-04-26 19:37 35.23463 -82.46358 6071 ft 263 kts 16°
2026-04-26 19:38 35.25279 -82.46165 5609 ft 266 kts 354°
2026-04-26 19:38 35.27056 -82.46775 5249 ft 262 kts 341°
2026-04-26 19:38 35.28731 -82.47538 4995 ft 254 kts 341°
2026-04-26 19:38 35.30386 -82.48279 4674 ft 249 kts 341°
2026-04-26 19:39 35.31997 -82.49000 4348 ft 243 kts 341°
2026-04-26 19:39 35.33534 -82.49691 4011 ft 228 kts 341°
2026-04-26 19:39 35.34966 -82.50333 3720 ft 214 kts 341°
2026-04-26 19:39 35.36298 -82.50930 3414 ft 192 kts 341°
2026-04-26 19:40 35.37465 -82.51453 3215 ft 166 kts 341°
2026-04-26 19:40 35.38510 -82.51904 3090 ft 156 kts 343°
2026-04-26 19:40 35.39462 -82.52308 3052 ft 129 kts 340°
2026-04-26 19:40 35.40313 -82.52715 2736 ft 135 kts 340°
2026-04-26 19:41 35.41180 -82.53103 2522 ft 136 kts 340°
2026-04-26 19:41 35.42066 -82.53504 2285 ft 132 kts 340°
2026-04-26 19:41 35.42881 -82.53875 2124 ft 111 kts 340°
2026-04-26 19:41 35.43333 -82.54077 2144 ft 96 kts 340°
2026-04-26 19:42 35.43970 -82.54353 2161 ft 25 kts
2026-04-26 19:42 35.44094 -82.54336 2160 ft 14 kts 10°
2026-04-26 19:42 35.44143 -82.54325 2159 ft 0 kts
2026-04-26 19:43 35.44179 -82.54321 2159 ft 14 kts 354°
2026-04-26 19:43 35.44265 -82.54298 2157 ft 15 kts 69°
2026-04-26 19:43 35.44306 -82.54166 2159 ft 13 kts 71°
2026-04-26 19:43 35.44336 -82.54154 2159 ft 5 kts 250°
2026-04-26 19:44 35.44329 -82.54167 2159 ft 0 kts 219°